Regional Weather Roundup
Issued by NWS

Home | Current Version | Previous Version | Graphics & Text | Print | Product List | Glossary On
Versions: 1 2 3 4 5 6 7 8 9 10 11 12 13 14 15 16 17 18 19 20 21 22 23 24 25 26 27 28 29 30 31 32 33 34 35 36 37 38 39 40 41 42 43 44 45 46 47 48 49 50
000
ASUS43 KLOT 210510
RWRIL

ILLINOIS REGIONAL WEATHER ROUNDUP
NATIONAL WEATHER SERVICE CHICAGO/ROMEOVILLE IL
1200 AM CDT SUN SEP 21 2014

NOTE: "FAIR" INDICATES FEW OR NO CLOUDS BELOW 12,000 FEET WITH NO
SIGNIFICANT WEATHER AND/OR OBSTRUCTIONS TO VISIBILITY.

* THESE STATIONS ARE NOT UNDER NWS QUALITY CONTROL. THEY ALSO MAY NOT
  REPORT WEATHER SUCH AS PRECIPITATION OR FOG.

ILZ001-002-007-009-015-016-024-210600-
NORTHWEST ILLINOIS

CITY           SKY/WX    TMP DP  RH WIND       PRES   REMARKS
MOLINE         CLEAR     69  59  70 NW9       29.84R
STERLING*      MOCLDY    68  59  73 NW13G20   29.80R
SAVANNA*       CLOUDY    65  60  82 W6        29.81F
$$

ILZ003-004-008-010-011-017-018-210600-
NORTH CENTRAL ILLINOIS

CITY           SKY/WX    TMP DP  RH WIND       PRES   REMARKS
ROCKFORD       CLOUDY    66  62  87 W9        29.76R
ROCHELLE*      LGT RAIN  65  62  91 W12G26    29.79R
DE KALB*       TSTM      63  61  93 W17G33    29.80R
PERU*          MOCLDY    70  67  90 W12       29.79F
$$

ILZ005-006-012>014-019>023-210600-
NORTHEAST ILLINOIS

CITY           SKY/WX    TMP DP  RH WIND       PRES   REMARKS
CHICAGO-OHARE  PTCLDY    69  66  90 SW9       29.72F
CHICAGO-MIDWAY MOCLDY    72  68  87 SW13      29.74F
AURORA         MOCLDY    69  64  84 SW13      29.75F
LANSING*       PTCLDY    68  67  96 SW9       29.75F FOG
JOLIET*        PTCLDY    68  63  83 SW5       29.77F
WAUKEGAN       PTCLDY    66  64  93 SW10      29.68F
DUPAGE AIRPORT CLEAR     68  63  84 SW10      29.73F
KANKAKEE*      PTCLDY    69  68  94 SW12      29.79F
WHEELING       PTCLDY    71  66  84 S8        29.72F
MORRIS*        PTCLDY    67  67 100 SW7       29.76F
ROMEOVILLE*    PTCLDY    68  64  88 SW8       29.76F
NORTHERLY ISL    N/A     71  66  84 SW5         N/A
$$

LMZ740>746-210600-
SOUTHERN LAKE MICHIGAN

STATION/POSITION SKY/WX   TEMP    WIND        PRES    VSBY  WAVE
                          AIR SEA DIR/SP/G                  HT/PER
                          (F)     (DEG/KT/KT) (MB)    (MI)  (FT/S)
SOUTHERN BUOY              67 63  220/ 14/ 19 1005.0F         1/ 3
WAUKEGAN HARBOR            69     230/ 13/ 15   N/A
HARRISON CRIB              71     210/ 20/ 25   N/A
BURNHAM HARBOR             71     200/  4/ 10   N/A
CALUMET HARBOR             70     210/  6/  9 1006.1F
MICHIGAN CITY              69     160/ 16/ 23   N/A
MICHIGAN CITY 6N           68 66  200/ 14/ 16   N/A           1/ 2
ST. JOSEPH                 67 65  170/ 10/ 14   N/A           2/ 3
$$

ILZ025>027-034>036-040-047-049-050-058-095>099-210600-
WEST-CENTRAL ILLINOIS

CITY           SKY/WX    TMP DP  RH WIND       PRES   REMARKS
QUINCY         CLEAR     72  70  93 W8        29.89F
GALESBURG*     PTCLDY    69  67  92 W8        29.85R
MACOMB*        CLEAR     69  67  95 W7        29.88S FOG
JACKSONVILLE*  PTCLDY    73  71  92 SW6       29.89F
PITTSFIELD*    PTCLDY    74  69  84 W7        29.91F
$$

ILZ028>032-037-038-041>044-048-051>054-059>061-210600-
CENTRAL ILLINOIS

CITY           SKY/WX    TMP DP  RH WIND       PRES   REMARKS
PONTIAC        CLEAR     72  70  94 SW8       29.80F FOG
DECATUR        PTCLDY    73  69  87 W8        29.87F
PEORIA         CLEAR     72  67  84 W8        29.83F
LACON*         CLEAR     71  66  85 SW8       29.79F
LINCOLN*       CLEAR     72  70  93 SW3       29.83F
SPRINGFIELD    PTCLDY    72  69  90 SW7       29.87F
TAYLORVILLE    LGT RAIN  72  68  88 W9        29.88S
$$

ILZ033-039-045-046-055>057-062-063-210600-
EAST-CENTRAL ILLINOIS

CITY           SKY/WX    TMP DP  RH WIND       PRES   REMARKS
CHAMPAIGN      MOCLDY    70  69  97 SW7       29.86F
DANVILLE*      HVY RAIN  69  65  89 SW10G18   29.81F
RANTOUL*       PTCLDY    71  67  88 SW6       29.85F
MATTOON        CLOUDY    73  67  81 SW9       29.87S
PARIS*         CLOUDY    72  69  92 SW8       29.86F THUNDER
$$

ILZ079-100>102-210600-
SOUTHWEST ILLINOIS

CITY           SKY/WX    TMP DP  RH WIND       PRES   REMARKS
ALTON          PTCLDY    73  67  81 SW7       29.91F
BELLEVILLE     CLEAR     71  67  88 VRB2      29.91F
CAHOKIA*       CLEAR     76  67  73 VRB6      29.92S
SPARTA*        CLEAR     73  68  86 SW7       29.95S
$$

ILZ064>066-069>071-074>076-080>082-084>086-088>090-092>094-210600-
SOUTH-CENTRAL ILLINOIS

CITY           SKY/WX    TMP DP  RH WIND       PRES   REMARKS
CARBONDALE     CLEAR     70  66  87 S7        29.95F
CAIRO*         CLEAR     67  64  87 CALM      29.98S
EFFINGHAM*     CLOUDY    73  64  75 SW9       29.90S
MARION         CLEAR     72  68  88 S7        29.95F
MT. VERNON     MOCLDY    72  64  78 SW9       29.94S
CENTRALIA*     MOCLDY    73  65  78 SW8       29.93R
SALEM*         CLOUDY    75  69  82 SW9       29.93R
METROPOLIS*    CLEAR     69  69  99 SW3       29.97F
$$

ILZ067-068-072-073-078-083-087-091-210600-
SOUTHEAST ILLINOIS

CITY           SKY/WX    TMP DP  RH WIND       PRES   REMARKS
LAWRENCEVILLE  PTCLDY    72  67  84 SW10      29.91S
FLORA*         PTCLDY    72  67  82 SW9       29.92R
FAIRFIELD*     PTCLDY   N/A N/A N/A SW7       29.92S
HARRISBURG*    CLEAR     70  69  96 SW5       29.96F
ROBINSON*      MOCLDY    74  69  84 SW10      29.89S
CARMI*         CLEAR     73  69  87 SW7       29.92F
$$

ABBREVIATIONS USED IN REMARKS
   TC - TEMPERATURE IN CELSIUS
  WCI - WIND CHILL INDEX
   HX - HEAT INDEX
  VSB - VISIBILITY
$$



USA.gov is the U.S. government's official web portal to all federal, state and local government web resources and services.